Satellite-Ground Cal/Val Site Overpasses Predictions

Prediction of Satellite NPP Overpassing Cal/Val Site: Antarctic Dome C

Ground Cal/Val Site Location: Latitude: -75.10, Longitude: 123.35; Satellite-Ground Site NADIR distance within 100 km.

Table of predicted overpasses for the next 14.0 days since TLE Epoch: 2/3/2024
Interval Starting Time Ending Time Minimum Distance Time Minimum Distance (km)
1 02/03/2024 14:36:51 02/03/2024 14:37:06 02/03/2024 14:36:59 84.38
2 02/04/2024 07:38:23 02/04/2024 07:38:50 02/04/2024 07:38:37 37.33
3 02/05/2024 07:19:37 02/05/2024 07:19:57 02/05/2024 07:19:47 72.72
4 02/07/2024 15:01:52 02/07/2024 15:02:15 02/07/2024 15:02:04 59.78
5 02/08/2024 14:43:01 02/08/2024 14:43:26 02/08/2024 14:43:13 49.53
6 02/09/2024 07:44:42 02/09/2024 07:45:02 02/09/2024 07:44:52 72.37
7 02/10/2024 07:25:50 02/10/2024 07:26:17 02/10/2024 07:26:03 35.49
8 02/12/2024 15:08:17 02/12/2024 15:08:22 02/12/2024 15:08:20 97.45
9 02/13/2024 14:49:14 02/13/2024 14:49:43 02/13/2024 14:49:29 14.06
